[[{"header":{"parameterUnit":"m.s-1","parameterCategory":1,"la1":30.2991,"la2":30.254,"lo1":-89.0895,"lo2":-89.0444,"dy":0.0017,"dx":0.0017,"nx":28,"ny":28,"refTime":"2024-07-06T09:00:00:Z","depth":0,"parameterNumber":2,"parameterNumberName":"U-component_of_WINDS"},"data":[0,0,0,0,0,0,0,0,0,0,0,0,0,0,0,0,0,0,0,0,0,0,0,0,0,0,0,0,0,0,0,0,0,0,0,0,0,0,0,0,0,0,0,0,0,0,0,0,0,0,0,0,0,0,0,0,0,0,-0.9456,-0.9456,0,-0.9398,-0.9397,-0.9397,-0.937,-0.937,-0.9371,-0.9371,-0.9307,-0.9305,-0.9303,0,0,0,0,0,0,0,0,0,0,0,0,0,-0.9539,-0.9537,-0.9456,-0.9455,-0.9455,-0.9398,-0.9397,-0.9397,-0.937,-0.937,-0.9371,-0.9371,-0.9307,-0.9305,-0.9303,0,0,0,0,0,0,0,0,0,0,0,0,0,-0.9494,-0.9537,-0.9456,-0.9435,-0.9432,-0.9398,-0.9397,-0.9396,-0.937,-0.937,-0.9371,-0.9371,-0.9308,-0.9306,-0.9303,-0.9285,0,0,-0.9295,-0.9294,0,0,0,0,0,0,0,0,-0.9497,-0.9491,-0.9439,-0.9436,-0.9434,-0.9392,-0.9403,-0.9359,-0.937,-0.9394,-0.9371,-0.9371,-0.9335,-0.933,-0.9319,-0.9282,-0.9279,-0.9295,-0.9293,-0.9292,-0.9291,0,0,0,0,0,0,0,-0.95,-0.9493,-0.9433,-0.9438,-0.9435,-0.9426,-0.942,-0.9395,-0.9364,-0.9392,-0.939,-0.9383,-0.9333,-0.9321,-0.9317,-0.9278,-0.9295,-0.9292,-0.9291,-0.929,-0.922,-0.9219,0,0,0,0,0,0,-0.9507,-0.9496,-0.9435,-0.9431,-0.9466,-0.9425,-0.9418,-0.9405,-0.9364,-0.9359,-0.9383,-0.9382,-0.9326,-0.932,-0.9315,-0.9289,-0.9292,-0.9289,-0.9288,-0.922,-0.922,-0.9219,0,0,0,0,0,0,-0.9509,-0.9502,-0.9437,-0.9463,-0.9454,-0.9423,-0.9409,-0.9404,-0.9392,-0.9358,-0.9352,-0.9377,-0.9326,-0.9318,-0.9292,-0.9286,-0.9288,-0.9286,-0.922,-0.922,-0.9219,-0.9238,0,0,0,0,0,0,-0.9511,-0.9503,-0.9497,-0.9463,-0.9453,-0.9417,-0.9409,-0.9403,-0.9388,-0.9386,-0.9351,-0.9345,-0.9325,-0.9296,-0.9289,-0.9282,-0.9284,-0.9221,-0.922,-0.922,-0.9237,-0.9238,-0.9238,0,0,0,0,0,-0.9514,-0.9504,-0.9497,-0.9489,-0.9445,-0.9417,-0.9411,-0.939,-0.9388,-0.938,-0.9358,-0.9346,-0.9288,-0.9294,-0.9286,-0.9278,-0.9221,-0.922,-0.922,-0.9237,-0.9238,-0.9238,0,0,0,0,0,0,-0.9536,-0.9499,-0.9491,-0.9469,-0.9447,-0.9413,-0.9403,-0.9392,-0.9368,-0.9367,-0.934,-0.9332,-0.9308,-0.929,-0.9297,-0.9257,-0.9253,-0.9251,-0.9269,-0.9269,-0.927,-0.9274,-0.9282,0,0,0,0,0,-0.9539,-0.9521,-0.9489,-0.9473,-0.9462,-0.9435,-0.9422,-0.9407,-0.9382,-0.9372,-0.9348,-0.9323,-0.9298,-0.9283,-0.9259,-0.9235,-0.9225,-0.9225,-0.9226,-0.9226,-0.9225,-0.9208,-0.9207,-0.9217,-0.9217,-0.9217,0,0,-0.9544,-0.9521,-0.9511,-0.9477,-0.9457,-0.9437,-0.9427,-0.9406,-0.939,-0.9368,-0.9342,-0.9323,-0.9293,-0.9267,-0.9254,-0.9252,-0.922,-0.9226,-0.9226,-0.9224,-0.9207,-0.9206,-0.9205,-0.9217,-0.9217,-0.9217,0,0,-0.9542,-0.9524,-0.9508,-0.9489,-0.946,-0.9442,-0.9438,-0.9405,-0.9392,-0.9366,-0.9348,-0.9328,-0.9287,-0.9266,-0.9249,-0.9238,-0.9224,-0.923,-0.9232,-0.9217,-0.9216,-0.9215,-0.9209,-0.9207,-0.9229,-0.9229,-0.9229,0,-0.9552,-0.9522,-0.9501,-0.9481,-0.9465,-0.9445,-0.9427,-0.9409,-0.9374,-0.9362,-0.936,-0.9307,-0.9286,-0.9253,-0.925,-0.9238,-0.9231,-0.9234,-0.9218,-0.9217,-0.9216,-0.9209,-0.9207,-0.923,-0.9229,-0.9229,-0.9229,0,-0.9534,-0.9514,-0.9504,-0.9471,-0.9454,-0.9435,-0.9409,-0.9394,-0.938,-0.9362,-0.9333,-0.9306,-0.9275,-0.9267,-0.9253,-0.9232,-0.923,-0.9224,-0.9219,-0.9216,-0.9209,-0.9207,-0.9231,-0.923,-0.923,-0.923,0,0,-0.9545,-0.95,-0.9497,-0.948,-0.9446,-0.9429,-0.9408,-0.9379,-0.9366,-0.9342,-0.9322,-0.9287,-0.928,-0.9262,-0.9245,-0.9231,-0.9221,-0.9225,-0.9224,-0.9224,-0.9193,-0.9198,-0.9195,-0.9212,-0.9212,-0.9211,-0.9195,0,-0.9538,-0.9502,-0.9481,-0.9452,-0.9432,-0.9411,-0.9393,-0.9369,-0.935,-0.9328,-0.9307,-0.9282,-0.9275,-0.9264,-0.9249,-0.9225,-0.9214,-0.9226,-0.9191,-0.919,-0.9199,-0.9192,-0.9198,-0.9184,-0.9192,-0.9192,-0.9192,0,-0.9525,-0.9502,-0.9471,-0.9438,-0.9428,-0.9412,-0.9383,-0.9363,-0.9334,-0.9321,-0.93,-0.9283,-0.9258,-0.9256,-0.9219,-0.9228,-0.9212,-0.9198,-0.9197,-0.9192,-0.919,-0.9186,-0.9179,-0.9176,-0.9188,-0.9188,-0.9188,0,-0.9535,-0.9495,-0.9472,-0.9459,-0.9419,-0.9408,-0.9391,-0.9362,-0.9345,-0.9319,-0.9307,-0.9278,-0.9261,-0.9238,-0.9212,-0.9214,-0.9177,-0.9174,-0.9164,-0.9164,-0.9156,-0.9157,-0.9145,-0.9148,-0.9148,-0.9148,-0.9149,0,-0.9528,-0.951,-0.9475,-0.9461,-0.9438,-0.9414,-0.9392,-0.9373,-0.9347,-0.9326,-0.9306,-0.9287,-0.9255,-0.9231,-0.9211,-0.9182,-0.9175,-0.9163,-0.9157,-0.9164,-0.9165,-0.9152,-0.9152,-0.9148,-0.9148,-0.9148,-0.9148,0,-0.9535,-0.9512,-0.9484,-0.9449,-0.9439,-0.9424,-0.9393,-0.9377,-0.9356,-0.933,-0.9323,-0.929,-0.9261,-0.9233,-0.9194,-0.918,-0.915,-0.9144,-0.9161,-0.9158,-0.9149,-0.9149,-0.9127,-0.9122,-0.913,-0.913,-0.913,0,-0.9533,-0.9518,-0.9481,-0.9467,-0.945,-0.9427,-0.9409,-0.9383,-0.9366,-0.933,-0.9318,-0.9287,-0.9261,-0.9214,-0.9186,-0.9154,-0.9146,-0.9141,-0.9142,-0.9148,-0.9144,-0.9145,-0.9142,-0.9141,-0.9141,-0.9141,-0.9141,0,-0.9529,-0.9518,-0.9495,-0.9466,-0.9446,-0.9423,-0.9398,-0.9387,-0.9356,-0.9336,-0.9307,-0.9286,-0.9246,-0.9214,-0.918,-0.9159,-0.9144,-0.9141,-0.9137,-0.9143,-0.9152,-0.9145,-0.916,-0.9142,-0.9142,-0.9142,-0.9142,-0.9142,-0.953,-0.9516,-0.9487,-0.9461,-0.944,-0.9417,-0.9399,-0.9377,-0.9352,-0.9318,-0.9303,-0.9272,-0.924,-0.9193,-0.9172,-0.9146,-0.9143,-0.9137,-0.9135,-0.9134,-0.9134,-0.9158,-0.914,-0.914,-0.9139,-0.9139,-0.9139,0,-0.9525,-0.9505,-0.9481,-0.9448,-0.9426,-0.9415,-0.9387,-0.9369,-0.9343,-0.9316,-0.929,-0.9254,-0.9223,-0.9192,-0.9159,-0.9143,-0.9135,-0.9135,-0.9136,-0.9131,-0.914,-0.9146,-0.9142,-0.9142,-0.9142,-0.9142,-0.9142,-0.9142,-0.952,-0.9494,-0.9478,-0.944,-0.942,-0.9391,-0.9375,-0.9353,-0.9331,-0.9292,-0.9267,-0.9247,-0.9217,-0.9181,-0.9151,-0.9142,-0.913,-0.9132,-0.9121,-0.913,-0.913,-0.913,-0.9136,-0.913,-0.913,-0.9113,-0.9113,-0.9113]},{"header":{"parameterUnit":"m.s-1","parameterCategory":1,"la1":30.2991,"la2":30.254,"lo1":-89.0895,"lo2":-89.0444,"dy":0.0017,"dx":0.0017,"nx":28,"ny":28,"refTime":"2024-07-06T09:00:00:Z","depth":0,"parameterNumber":3,"parameterNumberName":"V-component_of_WINDS"},"data":[0,0,0,0,0,0,0,0,0,0,0,0,0,0,0,0,0,0,0,0,0,0,0,0,0,0,0,0,0,0,0,0,0,0,0,0,0,0,0,0,0,0,0,0,0,0,0,0,0,0,0,0,0,0,0,0,0,0,-0.7062,-0.7062,0,-0.7084,-0.7085,-0.7085,-0.7132,-0.7133,-0.7134,-0.7135,-0.7156,-0.7155,-0.7155,0,0,0,0,0,0,0,0,0,0,0,0,0,-0.7058,-0.7058,-0.7062,-0.7062,-0.7063,-0.7084,-0.7085,-0.7085,-0.7132,-0.7133,-0.7134,-0.7135,-0.7156,-0.7155,-0.7155,0,0,0,0,0,0,0,0,0,0,0,0,0,-0.7068,-0.7058,-0.7062,-0.7089,-0.7092,-0.7084,-0.7085,-0.7085,-0.7132,-0.7133,-0.7135,-0.7136,-0.7156,-0.7155,-0.7155,-0.7123,0,0,-0.7153,-0.7153,0,0,0,0,0,0,0,0,-0.7067,-0.7068,-0.7085,-0.7087,-0.709,-0.7107,-0.7091,-0.7098,-0.7131,-0.7116,-0.7135,-0.7137,-0.7138,-0.7139,-0.714,-0.7124,-0.7125,-0.7153,-0.7153,-0.7153,-0.7152,0,0,0,0,0,0,0,-0.7066,-0.7067,-0.7071,-0.7085,-0.7088,-0.7099,-0.7102,-0.7092,-0.7119,-0.7118,-0.7121,-0.7123,-0.714,-0.714,-0.7141,-0.7125,-0.7153,-0.7153,-0.7152,-0.7152,-0.7081,-0.7079,0,0,0,0,0,0,-0.7062,-0.7066,-0.707,-0.7072,-0.7082,-0.7098,-0.7101,-0.71,-0.7119,-0.7123,-0.7122,-0.7126,-0.7141,-0.7141,-0.7142,-0.7103,-0.7153,-0.7152,-0.7152,-0.7083,-0.7081,-0.7079,0,0,0,0,0,0,-0.7062,-0.7062,-0.7069,-0.707,-0.7072,-0.7096,-0.7095,-0.71,-0.71,-0.7122,-0.7127,-0.7118,-0.7142,-0.7143,-0.7127,-0.7105,-0.7152,-0.7151,-0.7084,-0.7082,-0.708,-0.7027,0,0,0,0,0,0,-0.7062,-0.7062,-0.705,-0.7069,-0.7072,-0.7054,-0.7094,-0.7099,-0.71,-0.7104,-0.712,-0.7124,-0.7143,-0.7127,-0.7126,-0.7105,-0.7151,-0.7086,-0.7083,-0.7081,-0.7031,-0.7023,-0.7017,0,0,0,0,0,-0.7061,-0.7035,-0.705,-0.705,-0.7058,-0.7053,-0.7054,-0.7078,-0.7098,-0.7086,-0.71,-0.7123,-0.7108,-0.7125,-0.7125,-0.7103,-0.7088,-0.7084,-0.7081,-0.7034,-0.7025,-0.7017,0,0,0,0,0,0,-0.7012,-0.7038,-0.7054,-0.7033,-0.7041,-0.7061,-0.7047,-0.7067,-0.7069,-0.7073,-0.7101,-0.7104,-0.7084,-0.7092,-0.7111,-0.7072,-0.7102,-0.7098,-0.7066,-0.7058,-0.7051,-0.7048,-0.7151,0,0,0,0,0,-0.6999,-0.6994,-0.7016,-0.6995,-0.6998,-0.7022,-0.7021,-0.7038,-0.7047,-0.705,-0.7063,-0.7069,-0.7066,-0.7063,-0.7061,-0.7033,-0.7036,-0.7018,-0.7011,-0.7005,-0.7,-0.6984,-0.6975,-0.7067,-0.7067,-0.7067,0,0,-0.6971,-0.6985,-0.6979,-0.6986,-0.6993,-0.6986,-0.7024,-0.7015,-0.7009,-0.7048,-0.7033,-0.7043,-0.7052,-0.703,-0.7021,-0.7036,-0.6976,-0.7,-0.6996,-0.6994,-0.6979,-0.697,-0.6963,-0.7065,-0.7065,-0.7066,0,0,-0.6916,-0.6927,-0.691,-0.6917,-0.6928,-0.6944,-0.694,-0.6957,-0.6965,-0.6951,-0.6979,-0.6973,-0.6967,-0.6972,-0.6973,-0.692,-0.694,-0.6918,-0.688,-0.6864,-0.6857,-0.685,-0.6828,-0.682,-0.6914,-0.6914,-0.6914,0,-0.688,-0.687,-0.6898,-0.6887,-0.6888,-0.6923,-0.6905,-0.6911,-0.692,-0.6919,-0.6937,-0.693,-0.6939,-0.6916,-0.6903,-0.6904,-0.6899,-0.6915,-0.6856,-0.685,-0.6844,-0.6823,-0.6815,-0.6911,-0.6912,-0.6912,-0.6912,0,-0.6824,-0.6817,-0.6802,-0.681,-0.681,-0.6795,-0.6819,-0.6816,-0.6833,-0.6847,-0.6831,-0.6843,-0.6843,-0.684,-0.6857,-0.682,-0.6829,-0.6851,-0.6881,-0.6832,-0.6812,-0.6805,-0.6907,-0.6908,-0.6909,-0.691,0,0,-0.6737,-0.6761,-0.6754,-0.6758,-0.6773,-0.6768,-0.6754,-0.6755,-0.675,-0.6756,-0.6744,-0.6738,-0.6758,-0.676,-0.6778,-0.6764,-0.6717,-0.6788,-0.6788,-0.6771,-0.6673,-0.6654,-0.6645,-0.6732,-0.6731,-0.673,-0.6671,0,-0.6683,-0.6661,-0.6685,-0.6658,-0.665,-0.6684,-0.6672,-0.668,-0.6692,-0.6687,-0.6701,-0.6695,-0.6724,-0.6724,-0.6712,-0.6725,-0.6697,-0.673,-0.6719,-0.6718,-0.6712,-0.6635,-0.6615,-0.6559,-0.6665,-0.6663,-0.6662,0,-0.6617,-0.6619,-0.6591,-0.6607,-0.6604,-0.6593,-0.6595,-0.659,-0.6599,-0.6609,-0.661,-0.6633,-0.6619,-0.6651,-0.6631,-0.6653,-0.665,-0.6655,-0.6654,-0.6651,-0.6685,-0.6627,-0.6543,-0.6533,-0.6652,-0.6652,-0.6653,0,-0.6552,-0.6549,-0.6531,-0.6533,-0.6552,-0.6543,-0.655,-0.656,-0.6558,-0.656,-0.6559,-0.6559,-0.6558,-0.6557,-0.6578,-0.66,-0.6554,-0.6589,-0.656,-0.6559,-0.6546,-0.6546,-0.6457,-0.655,-0.655,-0.655,-0.655,0,-0.6487,-0.6468,-0.6502,-0.649,-0.6469,-0.6497,-0.6475,-0.6486,-0.6494,-0.6485,-0.6515,-0.6505,-0.6535,-0.6528,-0.6544,-0.6524,-0.6524,-0.653,-0.6534,-0.6525,-0.6524,-0.6521,-0.6524,-0.6548,-0.6548,-0.6549,-0.6549,0,-0.641,-0.6432,-0.6414,-0.6434,-0.6438,-0.6421,-0.6437,-0.6427,-0.6442,-0.6429,-0.6427,-0.645,-0.6443,-0.6465,-0.6461,-0.6472,-0.6441,-0.6454,-0.6438,-0.644,-0.641,-0.6411,-0.6312,-0.63,-0.6404,-0.6403,-0.6402,0,-0.6366,-0.6351,-0.6369,-0.6365,-0.6371,-0.6364,-0.6362,-0.639,-0.6387,-0.6395,-0.6383,-0.6379,-0.6376,-0.6363,-0.6378,-0.6375,-0.6386,-0.6351,-0.6385,-0.6376,-0.6381,-0.638,-0.6377,-0.6343,-0.6342,-0.6341,-0.634,0,-0.6283,-0.6295,-0.6292,-0.6292,-0.629,-0.6291,-0.6295,-0.629,-0.6319,-0.6314,-0.6307,-0.6305,-0.6302,-0.6296,-0.6296,-0.6303,-0.6325,-0.633,-0.6322,-0.6312,-0.6302,-0.6303,-0.6415,-0.6331,-0.6332,-0.6333,-0.6333,-0.6333,-0.6219,-0.6207,-0.6217,-0.6212,-0.6218,-0.6221,-0.6211,-0.6225,-0.622,-0.6219,-0.6236,-0.6225,-0.6233,-0.6236,-0.624,-0.6231,-0.6246,-0.6237,-0.6234,-0.623,-0.6223,-0.6306,-0.6232,-0.6232,-0.6232,-0.6232,-0.6233,0,-0.6136,-0.6144,-0.614,-0.6143,-0.6139,-0.6163,-0.6168,-0.6162,-0.6152,-0.6158,-0.6155,-0.6147,-0.6141,-0.6156,-0.6153,-0.6143,-0.6152,-0.614,-0.614,-0.614,-0.6211,-0.6216,-0.6132,-0.6132,-0.6132,-0.6132,-0.6132,-0.6132,-0.6091,-0.6072,-0.6084,-0.6067,-0.6076,-0.6066,-0.6066,-0.6068,-0.6072,-0.6061,-0.6057,-0.6068,-0.6077,-0.6074,-0.6069,-0.6074,-0.607,-0.6053,-0.6061,-0.6126,-0.6135,-0.6145,-0.6149,-0.6053,-0.6053,-0.599,-0.5989,-0.5989]}]]